GW3329 Weather Reports


time (UTC)temp
F
wind
direction
speed
knots
gust
knots
rain 1hr
in
rain 24hr
in
rain mn
in
humidity
%
barometer
mb
20260506115117 49 148 0.0 0.0 0.00 0.00 0.00 93 1020.9
20260506114614 49 134 0.0 0.9 0.00 0.00 0.00 94 1020.9
20260506114112 49 121 0.0 0.0 0.00 0.00 0.00 94 1020.8
20260506113610 49 105 0.0 0.0 0.00 0.00 0.00 94 1021.0
20260506113107 49 105 0.0 0.0 0.00 0.00 0.00 94 1020.8
20260506112604 49 104 0.0 0.0 0.00 0.00 0.00 94 1021.0
20260506112102 49 104 0.0 0.0 0.00 0.00 0.00 94 1021.1
20260506111559 49 103 0.0 0.0 0.00 0.00 0.00 93 1020.9
20260506111056 49 103 0.0 0.0 0.00 0.00 0.00 93 1021.0
20260506110554 49 102 0.0 0.0 0.00 0.00 0.00 93 1020.7
20260506110051 49 102 0.0 0.0 0.00 0.00 0.00 93 1020.7
20260506105547 49 101 0.0 0.9 0.00 0.00 0.00 93 1020.9
20260506105044 49 123 0.0 0.0 0.00 0.00 0.00 93 1020.8
20260506104542 49 133 0.0 0.0 0.00 0.00 0.00 94 1020.5
20260506104040 49 125 0.0 0.0 0.00 0.00 0.00 94 1020.8
20260506103537 49 136 0.0 0.0 0.00 0.00 0.00 94 1020.8
20260506103033 49 145 0.0 0.0 0.00 0.00 0.00 94 1020.8
20260506102532 49 145 0.0 0.0 0.00 0.00 0.00 95 1021.0
20260506102029 49 145 0.0 0.0 0.00 0.00 0.00 95 1020.9
20260506101525 49 145 0.0 0.0 0.00 0.00 0.00 95 1020.8
20260506101023 49 145 0.0 0.0 0.00 0.00 0.00 95 1020.8
20260506100521 48 145 0.0 0.0 0.00 0.00 0.00 95 1020.9
20260506100019 48 145 0.0 0.0 0.00 0.00 0.00 95 1020.9
20260506095517 48 145 0.0 0.0 0.00 0.00 0.00 95 1021.1
20260506095013 48 146 0.0 0.0 0.00 0.00 0.00 95 1021.0
20260506094511 48 146 0.0 0.0 0.00 0.00 0.00 95 1021.2
20260506094009 48 146 0.0 0.0 0.00 0.00 0.00 95 1021.2
20260506093507 48 146 0.0 0.0 0.00 0.00 0.00 95 1021.1
20260506093004 48 146 0.0 0.0 0.00 0.00 0.00 95 1021.0
20260506092502 49 146 0.0 0.0 0.00 0.00 0.00 95 1021.1
20260506091958 49 146 0.0 0.0 0.00 0.00 0.00 95 1021.1
20260506091457 49 146 0.0 0.0 0.00 0.00 0.00 95 1021.2
20260506090953 49 146 0.0 0.0 0.00 0.00 0.00 95 1021.2
20260506090451 49 145 0.0 0.0 0.00 0.00 0.00 95 1021.3
20260506085947 49 145 0.0 0.0 0.00 0.00 0.00 95 1021.2
20260506085444 49 145 0.0 0.0 0.00 0.00 0.00 95 1021.3
20260506084941 49 145 0.0 0.0 0.00 0.00 0.00 95 1021.3
20260506084437 49 145 0.0 0.0 0.00 0.00 0.00 95 1021.3
20260506083933 49 145 0.0 0.0 0.00 0.00 0.00 95 1021.4
20260506083431 49 145 0.0 0.0 0.00 0.00 0.00 95 1021.4
20260506082928 49 145 0.0 0.0 0.00 0.00 0.00 95 1021.5
20260506082425 49 145 0.0 0.0 0.00 0.00 0.00 94 1021.6
20260506081921 49 145 0.0 0.0 0.00 0.00 0.00 94 1021.5
20260506081420 50 145 0.0 0.0 0.00 0.00 0.00 94 1021.4
20260506080916 49 145 0.0 0.0 0.00 0.00 0.00 94 1021.4
20260506080413 49 145 0.0 0.0 0.00 0.00 0.00 94 1021.6
20260506073357 50 145 0.0 0.0 0.00 0.00 0.00 93 1021.6
20260506072854 50 145 0.0 0.0 0.00 0.00 0.00 93 1021.5
20260506072351 50 145 0.0 0.0 0.00 0.00 0.00 94 1021.4
20260506071849 51 145 0.0 0.0 0.00 0.00 0.00 94 1021.5
20260506071347 50 145 0.0 0.0 0.00 0.00 0.00 93 1021.3
20260506070843 50 145 0.0 0.0 0.00 0.00 0.00 93 1021.3
20260506070341 51 145 0.0 0.0 0.00 0.00 0.00 93 1021.2
20260506062318 51 145 0.0 0.0 0.00 0.00 0.00 92 1020.8
20260506061814 51 145 0.0 0.0 0.00 0.00 0.00 91 1020.8
20260506061310 52 145 0.0 0.0 0.00 0.00 0.00 91 1020.8
20260506060809 52 145 0.0 0.0 0.00 0.00 0.00 90 1020.8
20260506060307 52 145 0.0 0.0 0.00 0.00 0.00 90 1020.8
20260506051238 53 163 0.0 0.0 0.00 0.00 0.00 89 1020.4
20260506050736 53 163 0.0 0.0 0.00 0.00 0.00 88 1020.7
20260506050233 53 164 0.0 0.0 0.00 0.00 0.00 88 1020.5
20260506044723 54 140 0.0 0.0 0.00 0.00 0.00 87 1020.0
20260506044221 54 178 0.0 0.9 0.00 0.00 0.00 86 1020.0
20260506043718 54 219 0.0 1.7 0.00 0.00 0.00 87 1020.0
20260506043216 54 211 0.0 1.7 0.00 0.00 0.00 87 1020.0
20260506042714 54 186 1.7 1.7 0.00 0.00 0.00 87 1019.8
20260506042213 54 245 0.0 0.9 0.00 0.00 0.00 87 1019.8
20260506041711 54 247 0.9 1.7 0.00 0.00 0.00 87 1019.8
20260506041207 54 277 0.9 1.7 0.00 0.00 0.00 87 1019.8
20260506040705 54 239 0.9 1.7 0.00 0.00 0.00 86 1019.8
20260506040202 54 218 1.7 1.7 0.00 0.00 0.00 86 1019.4
20260506035658 55 220 0.0 1.7 0.00 0.00 0.00 86 1019.4
20260506035155 55 220 0.9 1.7 0.00 0.00 0.00 85 1019.3
20260506034651 55 217 0.0 1.7 0.00 0.00 0.00 85 1019.1
20260506034149 55 217 0.0 0.9 0.00 0.00 0.00 84 1019.1
20260506033646 55 213 0.9 1.7 0.00 0.00 0.00 83 1019.3
20260506033143 55 211 0.9 0.9 0.00 0.00 0.00 82 1019.0
20260506032640 56 260 0.0 1.7 0.00 0.00 0.00 82 1019.3
20260506032137 56 205 0.9 1.7 0.00 0.00 0.00 81 1019.1
20260506031634 56 181 0.0 0.9 0.00 0.00 0.00 80 1019.0
20260506031131 56 178 0.0 0.9 0.00 0.00 0.00 80 1018.6
20260506030630 57 178 0.0 0.0 0.00 0.00 0.00 79 1018.6
20260506030126 57 184 0.0 0.9 0.00 0.00 0.00 78 1018.8
20260506025623 57 179 0.0 0.9 0.00 0.00 0.00 78 1018.5
20260506025118 57 170 0.0 0.0 0.00 0.00 0.00 77 1018.7
20260506024616 58 167 0.9 2.6 0.00 0.00 0.00 76 1018.6
20260506024112 58 181 0.0 0.0 0.00 0.00 0.00 75 1018.4
20260506023608 58 338 0.0 1.7 0.00 0.00 0.00 75 1018.4
20260506023106 58 246 1.7 1.7 0.00 0.00 0.00 75 1018.2
20260506022603 58 120 0.9 1.7 0.00 0.00 0.00 75 1018.1
20260506022101 58 285 0.9 1.7 0.00 0.00 0.00 75 1018.4
20260506021558 58 233 1.7 1.7 0.00 0.00 0.00 75 1018.2
20260506021055 58 197 0.9 1.7 0.00 0.00 0.00 75 1018.2
20260506020553 58 183 0.0 2.6 0.00 0.00 0.00 75 1018.1
20260506020050 58 174 0.0 3.5 0.00 0.00 0.00 75 1018.1
20260506015548 58 158 1.7 3.5 0.00 0.00 0.00 75 1018.0
20260506015044 59 155 1.7 2.6 0.00 0.00 0.00 74 1018.2
20260506014542 59 162 0.0 0.0 0.00 0.00 0.00 74 1018.0
20260506014037 59 264 0.9 2.6 0.00 0.00 0.00 75 1017.9
20260506013536 59 194 4.3 6.1 0.00 0.00 0.00 74 1018.0
20260506013033 59 309 0.9 1.7 0.00 0.00 0.00 73 1017.9
20260506012529 60 172 1.7 5.2 0.00 0.00 0.00 72 1018.0
20260506012026 60 172 4.3 6.1 0.00 0.00 0.00 71 1018.1
20260506011524 61 109 0.9 5.2 0.00 0.00 0.00 71 1018.1
20260506011019 60 201 0.9 5.2 0.00 0.00 0.00 72 1018.0
20260506010514 60 256 3.5 7.0 0.00 0.00 0.00 72 1018.0
20260506010009 60 184 0.9 6.1 0.00 0.00 0.00 71 1018.1
20260506005507 59 231 1.7 9.6 0.00 0.00 0.00 72 1017.8
20260506005002 59 166 0.9 7.0 0.00 0.00 0.00 71 1017.8
20260506004500 59 262 0.0 2.6 0.00 0.00 0.00 71 1018.0
20260506003956 59 166 2.6 5.2 0.00 0.00 0.00 70 1017.9
20260506003453 59 152 0.9 5.2 0.00 0.00 0.00 71 1017.9
20260506002949 59 154 0.9 7.8 0.00 0.00 0.00 73 1017.9
20260506002445 60 103 3.5 7.0 0.00 0.00 0.00 73 1017.7
20260506001940 61 168 1.7 6.1 0.00 0.00 0.00 73 1017.9
20260506001438 61 205 1.7 6.1 0.00 0.00 0.00 74 1017.6
20260506000935 61 176 5.2 12.2 0.00 0.00 0.00 73 1017.9
20260506000432 62 179 3.5 7.8 0.00 0.00 0.00 70 1017.8
20260505235929 62 156 3.5 11.3 0.00 0.00 0.00 69 1017.7
20260505235428 62 208 2.6 6.1 0.00 0.00 0.00 68 1017.6
20260505234924 62 202 3.5 13.0 0.00 0.00 0.00 66 1017.6
20260505234421 64 198 5.2 7.8 0.00 0.00 0.00 62 1017.6
20260505233918 64 218 3.5 5.2 0.00 0.00 0.00 61 1017.5
20260505233416 63 253 4.3 11.3 0.00 0.00 0.00 62 1017.9
20260505232913 63 219 1.7 7.0 0.00 0.00 0.00 62 1017.7
20260505232411 63 188 5.2 8.7 0.00 0.00 0.00 63 1017.7
20260505231907 64 190 4.3 8.7 0.00 0.00 0.00 64 1017.6
20260505231405 63 179 4.3 5.2 0.00 0.00 0.00 62 1017.6
20260505230903 64 173 4.3 6.1 0.00 0.00 0.00 61 1017.6
20260505230400 64 170 2.6 7.0 0.00 0.00 0.00 60 1017.5
20260505225856 64 228 2.6 3.5 0.00 0.00 0.00 62 1017.6
20260505225354 64 271 3.5 7.0 0.00 0.00 0.00 62 1017.7
20260505224849 64 41 1.7 5.2 0.00 0.00 0.00 61 1017.6
20260505224347 64 245 5.2 8.7 0.00 0.00 0.00 60 1018.0
20260505223844 66 314 3.5 7.8 0.00 0.00 0.00 56 1017.8
20260505223341 66 183 7.8 9.6 0.00 0.00 0.00 56 1017.7
20260505222836 68 331 1.7 3.5 0.00 0.00 0.00 54 1017.8
20260505222333 66 195 1.7 5.2 0.00 0.00 0.00 58 1017.9
20260505221830 65 274 6.1 7.0 0.00 0.00 0.00 58 1018.0
20260505221327 65 146 3.5 7.0 0.00 0.00 0.00 59 1017.9
20260505220824 65 169 3.5 7.8 0.00 0.00 0.00 60 1017.7
20260505220321 66 263 7.0 9.6 0.00 0.00 0.00 58 1017.9
20260505215819 65 272 1.7 6.1 0.00 0.00 0.00 61 1018.0
20260505215316 66 188 3.5 12.2 0.00 0.00 0.00 57 1018.0
20260505214814 65 188 2.6 7.0 0.00 0.00 0.00 56 1018.1
20260505214311 66 209 4.3 8.7 0.00 0.00 0.00 58 1018.2
20260505213808 65 248 3.5 12.2 0.00 0.00 0.00 57 1018.2
20260505213306 66 219 5.2 6.1 0.00 0.00 0.00 56 1018.3
20260505212801 68 253 6.1 9.6 0.00 0.00 0.00 54 1018.0
20260505212259 66 274 0.9 7.8 0.00 0.00 0.00 55 1018.3
20260505211755 67 224 5.2 13.9 0.00 0.00 0.00 54 1018.0
20260505211253 67 183 4.3 7.0 0.00 0.00 0.00 53 1018.0
20260505210749 67 211 4.3 9.6 0.00 0.00 0.00 52 1018.0
20260505210246 68 310 3.5 7.0 0.00 0.00 0.00 53 1018.2
20260505205743 67 322 2.6 7.0 0.00 0.00 0.00 52 1018.2
20260505205242 66 233 6.1 12.2 0.00 0.00 0.00 53 1018.1
20260505204738 66 213 3.5 12.2 0.00 0.00 0.00 54 1018.2
20260505204236 66 241 3.5 9.6 0.00 0.00 0.00 55 1018.0
20260505203733 66 163 0.9 5.2 0.00 0.00 0.00 54 1018.1
20260505203230 66 163 3.5 7.8 0.00 0.00 0.00 53 1018.2
20260505202725 67 278 3.5 6.1 0.00 0.00 0.00 52 1018.1
20260505202222 67 180 2.6 6.1 0.00 0.00 0.00 52 1018.1
20260505201718 68 193 2.6 3.5 0.00 0.00 0.00 50 1018.0
20260505201216 68 182 2.6 3.5 0.00 0.00 0.00 50 1017.8
20260505200714 68 136 2.6 6.1 0.00 0.00 0.00 50 1018.2
20260505200211 67 162 1.7 7.0 0.00 0.00 0.00 54 1018.0
20260505195706 66 262 3.5 7.0 0.00 0.00 0.00 55 1018.1
20260505195204 66 263 1.7 5.2 0.00 0.00 0.00 53 1018.2
20260505194701 68 153 1.7 5.2 0.00 0.00 0.00 51 1018.3
20260505194156 67 185 1.7 8.7 0.00 0.00 0.00 53 1018.2
20260505193648 66 189 7.0 8.7 0.00 0.00 0.00 54 1018.1
20260505193145 68 213 2.6 12.2 0.00 0.00 0.00 54 1018.2
20260505192644 69 124 4.3 11.3 0.00 0.00 0.00 51 1018.5
20260505192141 68 161 0.9 5.2 0.00 0.00 0.00 54 1018.2
20260505191639 67 280 4.3 8.7 0.00 0.00 0.00 55 1018.1
20260505191137 68 208 1.7 7.0 0.00 0.00 0.00 54 1018.3
20260505190633 69 197 3.5 5.2 0.00 0.00 0.00 52 1018.2
20260505190132 67 222 2.6 5.2 0.00 0.00 0.00 55 1018.1
20260505185630 69 151 0.9 2.6 0.00 0.00 0.00 55 1018.3
20260505185126 69 183 1.7 2.6 0.00 0.00 0.00 53 1018.0
20260505184623 68 206 0.9 2.6 0.00 0.00 0.00 54 1018.3
20260505184120 67 11 0.9 3.5 0.00 0.00 0.00 56 1018.0
20260505183616 67 221 0.9 5.2 0.00 0.00 0.00 57 1018.3
20260505183114 66 248 3.5 5.2 0.00 0.00 0.00 57 1018.2
20260505182610 66 279 4.3 7.0 0.00 0.00 0.00 56 1018.3
20260505182107 66 106 0.9 3.5 0.00 0.00 0.00 58 1018.3
20260505181604 67 272 2.6 5.2 0.00 0.00 0.00 57 1018.2
20260505181101 66 236 2.6 6.1 0.00 0.00 0.00 59 1018.3
20260505180556 66 269 2.6 3.5 0.00 0.00 0.00 57 1017.9
20260505180055 66 243 5.2 7.0 0.00 0.00 0.00 61 1018.2
20260505175550 65 291 1.7 5.2 0.00 0.00 0.00 60 1018.2
20260505175047 65 327 0.9 3.5 0.00 0.00 0.00 59 1018.1
20260505174544 64 161 0.9 1.7 0.00 0.00 0.00 58 1018.0
20260505174040 65 40 1.7 2.6 0.00 0.00 0.00 59 1018.2
20260505173537 65 232 1.7 2.6 0.00 0.00 0.00 57 1018.1
20260505173033 64 182 1.7 6.1 0.00 0.00 0.00 57 1018.1
20260505172531 65 208 4.3 6.1 0.00 0.00 0.00 56 1018.1
20260505172027 64 216 0.0 6.1 0.00 0.00 0.00 58 1018.1
20260505171522 65 242 0.9 3.5 0.00 0.00 0.00 57 1018.0
20260505171020 64 94 0.0 0.9 0.00 0.00 0.00 60 1017.9
20260505170516 63 88 0.0 0.9 0.00 0.00 0.00 59 1017.9
20260505170013 63 121 0.0 0.9 0.00 0.00 0.00 60 1017.8
20260505165508 64 30 0.9 2.6 0.00 0.00 0.00 55 1017.8
20260505165004 64 283 4.3 6.1 0.00 0.00 0.00 56 1017.8
20260505164500 63 106 0.9 0.9 0.00 0.00 0.00 65 1018.0
20260505163958 62 82 0.0 0.9 0.00 0.00 0.00 66 1017.8
20260505163456 62 194 0.9 1.7 0.00 0.00 0.00 66 1017.8
20260505162956 62 200 0.0 0.9 0.00 0.00 0.00 66 1017.8
20260505162451 61 156 0.9 3.5 0.00 0.00 0.00 69 1017.9
20260505161948 61 244 0.0 1.7 0.00 0.00 0.00 68 1017.7
20260505161445 60 182 0.0 0.9 0.00 0.00 0.00 69 1017.7
20260505160942 60 145 0.9 2.6 0.00 0.00 0.00 67 1017.9
20260505160440 59 156 0.9 1.7 0.00 0.00 0.00 71 1017.5
20260505152916 57 212 0.9 0.9 0.00 0.00 0.00 81 1017.7
20260505152413 56 187 0.0 1.7 0.00 0.00 0.00 83 1017.8
20260505151908 57 146 0.0 0.9 0.00 0.00 0.00 82 1017.5
20260505151404 58 200 0.9 1.7 0.00 0.00 0.00 80 1017.6
20260505150901 58 61 0.0 3.5 0.00 0.00 0.00 81 1017.6
20260505150359 58 171 0.9 1.7 0.00 0.00 0.00 81 1017.5
20260505140323 51 171 0.0 0.0 0.00 0.00 0.00 95 1017.4
20260505130246 48 177 0.0 0.0 0.00 0.00 0.00 96 1017.1
20260505124736 48 177 0.0 0.0 0.00 0.00 0.00 96 1017.1
20260505124233 49 177 0.0 0.0 0.00 0.00 0.00 96 1017.3
20260505123729 49 177 0.0 0.0 0.00 0.00 0.00 96 1017.2
20260505123226 50 177 0.0 0.0 0.00 0.00 0.00 96 1017.0
20260505122723 50 177 0.0 0.0 0.00 0.00 0.00 96 1017.1
20260505122220 49 177 0.0 0.0 0.00 0.00 0.00 96 1017.2
20260505121716 49 177 0.0 0.0 0.00 0.00 0.00 96 1017.1
20260505121213 49 177 0.0 0.0 0.00 0.00 0.00 96 1017.1
20260505120710 49 177 0.0 0.0 0.00 0.00 0.00 96 1017.3
20260505120205 49 178 0.0 0.0 0.00 0.00 0.00 96 1017.1
20260505115659 49 178 0.0 0.0 0.00 0.00 0.00 95 1017.1